[Date Prev][Date Next][Thread Prev][Thread Next][Date Index][Thread Index]

[jamsat-news:573] jas2info#39


=========================   最新情報   ============================

        Last updated :Mon,23− June−97  20:00 (JST) #39

================================================================
   
     衛星情報 FOシリーズの軌道要素、テレメトリ、QSOの状況等をま
   とめてみました.

  1)FO−29(ふじ3号)は6月23日(月)の19:18(JST)のパスではJDディジ
     タルモードの9600bpsでJARLのスケジュールどうりに運用されています. 
    
  ・軌道要素1:「jamsatーkeps:596」より
                 SB KEPS @ AMSAT  $ORBS-171.N
                 2Line Orbital Elements 171.AMSAT

                 HR AMSAT ORBITAL ELEMENTS FOR AMATEUR SATELLITES IN NASA FORMAT
                 FROM WA5QGD FORT WORTH,TX June 20, 1997
                 SEND SUBSCRIBE/UNSUBSCRIBE TO listserv@amsat.org ONLY
                 BID: ORBS-171.N
                

   DECODE 2-LINE ELSETS WITH THE FOLLOWING KEY:
  1 AAAAAU 00  0  0 BBBBB.BBBBBBBB  .CCCCCCCC  00000-0  00000-00 
    DDDZ
  2 AAAAA EEE.EEEE FFF.FFFF GGGGGGG HHH.HHHH III.IIII JJ.JJJJJJJJ
    KKKKKZ
  KEY: A-CATALOGNUM B-EPOCHTIME C-DECAY D-ELSETNUM E-INCLINATION 
       F-RAAN
  G-ECCENTRICITY H-ARGPERIGEE I-MNANOM J-MNMOTION K-ORBITNUM 
       Z-CHECKSUM
   FO-29
  1 24278U 96046B   97169.17634606  .00000010  00000-0  45721-4 0 01089
  2 24278 098.5391 210.2720 0351461 183.5163 176.3475 13.52631600041253
 
  ・軌道要素:「jamsatーkeps:597」より
             SB KEPS @ AMSAT  $ORBS-171.O
             2Line Orbita Elements  171.OSCAR

             HR AMSAT ORBITAL ELEMENTS FOR OSCAR SATELLITES
             FROM WA5QGD FORT WORTH,TX June 20, 1997
             SEND SUBSCRIBE/UNSUBSCRIBE TO listserv@amsat.org ONLY
             BID: ORBS-171.O
             TO ALL RADIO AMATEURS BT

 Satellite: FO-29
 Catalog number: 24278
 Epoch time:      97169.17634606
 Element set:    0108
 Inclination:      098.5391 deg
 RA of node:       210.2720 deg
 Eccentricity:    0.0351461
 Arg of perigee:   183.5163 deg
 Mean anomaly:     176.3475 deg
 Mean motion:   13.52631600 rev/day
 Decay rate:        1.0e-07 rev/day^2
 Epoch rev:           04125
 Checksum:              288
 -----------------------------------------------------------
   *FO−29 のFMデジトーカについて
 
  1) [jamsat-2544]にJA3CFの岩崎好宏さんが投稿されてます、
      一部ですがご紹介します.
  
   久しぶりにFO-29のデジトーカがオンになっているという情報で受信
  してみました。「This is JAS-2」という女性の声に続いてウグイスが
  「ホーホケキョ」とひとこと鳴きます.

   このデジトーカが人気があるのでスケジュールを変更しているそう
  ですので、ここに最新情報をお届けします.(内容は入門者向け)
   --------------------------------------------------------
          「ふじ3号」デジトーカ受信キット

                   (社)日本アマチュア無線連盟
                      技術研究所

  岩崎 好宏     JA3CF    E-mail <ja3cf@jamsat.or.jp>
          URL <http://www.asahi-net.or.jp/~pt5y-iwsk>

 2) [jamsat-bb 2549]にデジトーカの受信状況をJA6BXの江崎昌男氏が
   投稿されてますのでご紹介します.

 既報の「うぐいすの声」デジトーカーをハンディ機で室内受信を試みました.
 
  4/4日 20:25JST前後のパスでしたが、約8分間ハンディ機付
属の短縮ホイップでもメリット5で入感していました。 「ホーホケキョ」の
周波数帯域が特にハンディ機のオーディオ特性にも相性がよいようです. 
  信号強度も去年の9月にデジトーカー運用の初期に比べると安定して、
強力になったように感じられます.

  アマチュア無線や、衛星通信に無関係の人たちに聞かせてあげるのにもっ
てこいのデモンストレーションと言えます.

 使用機:STANDARD C520 
 アンテナ:付属の短縮型ホイップ
 受信場所:福岡市南区(PM53EN)木造家屋の二階
 天候:雨
                                                       以 上
    73, de JA6BX - Y. Esaki 34122731@people.or.jp 
                         or, ja6bx@jamsat.or.jp
                             ja6bx@amsat.org  
---------------------------------------------------------------  
 *FO−29(ふじ3号)の6月23日(月)のJDディジタルモード、FM
 9600bpsで運用中のTNC解読によるテレメトリの最後の部分です.
(熊本市)

 AS4196F  23Jun97
 JST 19:18 ー 18:35
 Freq.435.919 ー902MHz    FM   FSK    RS 59+10db

 JAS-2    '97/06/23 10:27:45
EC 03 03 28 00 40 00 00 00 00
00 00 72 53 4F 77 5B 90 8D 9A
AA 52 A7 7E D0 B3 B7 B6 B5 B6
8J1JCS>BEACON [06/23/97  19:30:13]:
User not connect.
8J1JCS>BEACON [06/23/97  19:30:13]:
Total   23 File(s)

 No.  Date  UTC    To    From   Size   Subject
0259 06/21 15:57 ALL    DL8DR       85 Hi from Hamburg with 
8J1JCS>BEACON [06/23/97  19:30:14]:om Koenigswinter/Seven Mou
0217 06/01 09:19 ALL    7N1JVW     986 2Line Orbital Elements 150.AMSAT
0205 05/29 19:20 ALL    I4WRM
8J1JCS>BEACON [06/23/97  19:30:14]:      110 Ciao from Italy
0159 05/24 09:19 ALL    7N1JVW    5909 2Line Orbital Elements 97143
0144 05/13 23:42 ALL    JA0JWS    
8J1JCS>BEACON [06/23/97  19:30:15]: 509 HELLO
0125 05/11 09:25 ALL    DA1LA       86 Hello
0118 05/10 12:15 ALL    KB2MVN      57 Any one work 9600?
0108 05/09 07:
8J1JCS>BEACON [06/23/97  19:30:15]:
55 ALL    ON6MP       75 hello from Belgium
8J1JCS>BEACON [06/23/97  19:30:17]:95 42 00 09 40 80 65 40 00 00
8C 53 26 63 1C 68 6B 7A 8D 82
00 00 00 AC 78 B3 F7 00 00 C0
8J1JCS>BEACON [06/23/97  19:30:17]:EC 03 03 28 00 41 00 00 00 00
00 00 72 53 4F 71 60 8F 8D 9A
AA 52 A7 B9 CE B3 B7 B6 B5 B6
8J1JCS>BEACON [06/23/97  19:30:18]68J1JCS>BEACON [06/23/97  19:30:18] B
8J1JCS>BEACON [06/23/97  19:30:19]:EC 03 03 28 00 41 00 00 00 00
00 00 72 53 4F 74 5E 8F 8D 9A
AA 52 A6 76 CD B3 B7 B6 B5 B6
8J1JCS>BEACON [06/23/97  19:30:20]7
8J1JCS>BEACON [06/23/97  19:30:20] 
8J1JCS>BEACON [06/23/97  19:30:20]05
8J1JCS>BEACON [06/23/97  19:30:52]:EC 03 03 28 00 43 00 00 00 00
00 00 72 53 63 78 5C 90 8D 9A
AA 52 A7 7E CD B3 B7 B6 B5 B6
8J1JCS>BEACON [06/23/97  19:30:52]:55 02 00 09 40 80 65 40 00 00
85 53 28 65 1C 69 6B 7A 8E 83
00 00 00 AC 78 B3 F7 00 00 00
8J1JCS>BEACON [06/23/97  19:30:52]:EC 03 03 28 00 43 00 00 00 00
00 00 72 53 63 78 5A 90 8D 9A
AA 52 A7 77 CE B3 B7 B6 B5 B6
8J1JCS>BEACON [06/23/97  19:30:53]:55 02 00 09 40 80 65 40 00 00
85 53 28 65 1C 69 6B 7A 8E 83
00 00 00 AC 78 B3 F7 00 00 00
8J1JCS>BEACON [06/23/97  19:30:54]:95 82 00 09 40 80 65 40 00 00
85 53 28 65 1C 69 6B 7B 8E 83
00 00 00 AC 78 B3 F7 00 00 00
8J1JCS>BEACON [06/23/97  19:30:54]:EC 03 03 28 00 44 00 00 00 00
00 00 72 53 63 73 5D 8F 8D 9A
AA 52 A7 95 CE B3 B7 B6 B5 B6
8J1JCS>BEACON [06/23/97  19:31:03]:EC 03 03 28 00 44 00 00 00 00
00 00 72 53 68 76 5D 8F 8D 9A
AA 52 A7 75 CF B2 B7 B6 B5 B6
8J1JCS>BEACON [06/23/97  19:31:04]:D5 82 00 09 40 80 65 40 00 00
84 53 21 65 1C 68 6B 7A 8E 83
00 00 00 AC 78 B3 F7 00 00 00
8J1JCS>BEACON [06/23/97  19:31:04]:EC 03 03 28 00 44 00 00 00 00
00 00 72 53 68 77 5C 90 8D 9A
AA 52 A5 9E D1 B3 B7 B6 B5 B6
8J1JCS>BEACON [06/23/97  19:31:05]:D5 82 00 09 40 80 65 40 00 00
84 53 21 65 1C 68 6B 7B 8E 83
00 00 00 AC 78 B3 F7 00 00 00
8J1JCS>BEACON [06/23/97  19:31:08]:EC 03 03 28 00 44 00 00 00 00
00 00 72 53 68 72 5F 90 8D 9A
AA 52 A6 8E CF B3 B7 B6 B4 B6
8J1JCS>BEACON [06/23/97  19:31:09]:EC 03 03 28 00 44 00 00 00 00
00 00 72 53 68 70 60 8F 8D 9A
AA 52 A6 89 CD B3 B7 B6 B5 B6
8J1JCS>BEACON [06/23/97  19:31:09]:D5 82 00 09 40 80 65 40 00 00
84 53 21 65 1C 68 6B 7B 8E 83
00 00 00 AC 78 B3 F7 00 00 00
8J1JCS>BEACON [06/23/97  19:31:09]:EC 03 03 28 00 44 00 00 00 00
00 00 72 53 68 6F 5F 8F 8D 9A
AA 52 A7 90 CE B3 B7 B6 B5 B6
8J1JCS>BEACON [06/23/97  19:31:10]:D5 82 00 09 40 80 65 40 00 00
84 53 21 65 1C 68 6B 7B 8E 83
00 00 00 AC 78 B3 F7 00 00 00
8J1JCS>BEACON [06/23/97  19:31:14]:EC 03 03 28 00 44 00 00 00 00
00 00 72 53 6D 74 5D 8F 8D 9A
AA 52 A7 8D CD B3 B7 B6 B4 B6
8J1JCS>BEACON [06/23/97  19:31:15]:D5 82 00 09 40 80 65 40 00 00
80 53 28 65 1C 68 6A 7B 8E 83
00 00 00 AC 78 B3 F7 00 00 00
8J1JCS>BEACON [06/23/97  19:31:19]:EC 03 03 28 00 44 00 00 00 00
00 00 72 53 6D 70 60 90 8D 9A
AA 52 A6 87 CD B3 B7 B6 B5 B6
8J1JCS>BEACON [06/23/97  19:31:20]:D5 82 00 09 40 80 65 40 00000
80 53 28 65 1C 68 6A 7C 8E 83
00 00 00 AC 79 B3 F7 00 00 00
8J1JCS>BEACON [06/23/97  19:31:20]:EC 03 03 28 00 44 00 00 00 00
00 00 72 53 72 71 5E 90 8D 9A
AA 52 A7 84 CE B3 B7 B6 B5 B6
8J1JCS>BEACON [06/23/97  19:31:20]:D5 82 00 09 40 80 65 40 00 00
7D 53 22 67 1D 67 6A 7B 8E 83
00 00 00 AC 78 B3 F7 00 00 00
8J1JCS>BEACON [06/23/97  19:31:21]:D5 82 00 09 40 80 65 40 00 00
7D 53 22 67 1D 67 6A 7B 8E 83
00 00 00 AC 78 B3 F7 00 00 00

   上記のように2分間ごとと1秒間に2〜3回のTEST BEACONを送信して
 おります.
   *横に長い部分は改行を加えました.(JH6MME)
 ----------------------------------------------------
 2)FO-20(ふじ2号): JAモードの運用で順調に作動しています.
     アナログモードにてのQSOや思わぬDXが楽しめます.

  ・軌道要素1 :出典は「ふじ3号」に同じ.   
 
   FO-20
  1 20480U 90013C   97168.96820215 -.00000039  00000-0 -14595-4 0 09757
  2 20480 099.0456 130.4077 0541200 015.6896 346.0246 12.83238372344801

  ・軌道要素2 :出典は「ふじ3号」に同じ.   
 
 Satellite: FO-20
 Catalog number: 20480
 Epoch time:      97168.96820215
 Element set:    0975
 Inclination:      099.0456 deg
 RA of node:       130.4077 deg
 Eccentricity:    0.0541200
 Arg of perigee:   015.6896 deg
 Mean anomaly:     346.0246 deg
 Mean motion:   12.83238372 rev/day
 Decay rate:       -3.9e-07 rev/day^2
 Epoch rev:           34480
 Checksum:              310
   -------------------------------------------------------
 *FO−20 JAモードでRS 59程度で(受信感度はアンテナより
   見て約125db)非常に強力な信号で受信できています。衛星の
   現在の状態を符号化し、知らせるビーコン波にのっているテレメトリ
   です.
    6月23日(月) JST  13:40 のパスの 一部分です。
   (TNCで解読)
   AS34543C  23June97      CW   RS 59
   JST 13:40 - 13:54

 HI HI 146 148 170 171 285 284 253 262 352 353
         353 354 401 435 402 400 500 531 500 500
 HI HI 146 148 170 171 285 284 253 262 352 353 
         353 354 401 435 402 400 500 511 500 500
 HI HI 147 148 170 171 285 284 253 262 352 353 
         353 354 401 435 402 400 500 511 500 500
 HI HI 148 148 170 171 285 284 253 262 352 353 
         353 354 401 435 402 400 500 511 500 500
 HI HI 147 148 170 171 285 284 251 262 353 353 
         353 354 401 435 402 400 500 511 500 500
 -----------------------------------------------------------------
 *FOー20のJAモードでアナログQSO

 [jamsat-bb:2429]に投稿されたJA6BX局江崎昌男氏のQSOの状況です.

     2/12日の18:02JSTに、UA4NM Kirov の VladさんとFO-20経由でQSO
  しました.
  当方はLOS寸前で、当局のCWでのCQに答えてくれたものですが、FO-20で
  は初めてのUA4です.
* 後日、江崎氏のコメント:                                  
    昨日QSOできたUA4NMは1987年にAO−10でQSOしていま
 すが、FO−20/29のような低軌道衛星では、昨年のOH5LK以来の
 DXで、大変うれしく思います.
                     73, de JA6BX - Y. Esaki 34122731@people.or.jp 
                                            or, ja6bx@jamsat.or.jp          
=======================   JARL運用情報   =======================

   JARL News 5月号を見ていたら、27ページに「ふじ3号」の運用スケジュ
  ールが載っていました.

        ■ ふじ3号 ■ の運用予定

